Wheeler AAF, HI

9:11 AM HST on March 27, 2017 (GMT -1000)
Wheeler Army Air Field

Weather History for PHHI - February, 2013

Change the Weather History Date:

Monday, February 18, 2013

  Actual Average Record
Temperature  
Mean Temperature 66 °F -  
Max Temperature 71 °F 74 °F 82 °F (2004)
Min Temperature 62 °F 61 °F 56 °F (2009)
Cooling Degree Days 2    
Growing Degree Days 16 (Base 50)    
Moisture  
Dew Point 58 °F    
Average Humidity 72    
Maximum Humidity 88    
Minimum Humidity 58    
Precipitation  
Precipitation 0.08 in - - ()
Sea Level Pressure  
Sea Level Pressure 30.11 in    
Wind  
Wind Speed 14 mph (ENE)    
Max Wind Speed 25 mph    
Max Gust Speed 37 mph    
Visibility 9 miles    
Events Rain    
Averages and records for this station are not official NWS values.
T = Trace of Precipitation, MM = Missing Value Source: NWS Daily Summary

Daily Weather History Graph

Daily Weather History Graph

Search for Another Location

Airport or City:

Trip Planner

Search our weather history database for the weather conditions in past years. The results will help you decide how hot, cold, wet, or windy it might be!

Date:

Astronomy

Feb. 18, 2013 Rise Set
Actual Time 7:00 AM HST 6:31 PM HST
Civil Twilight 6:37 AM HST 6:54 PM HST
Nautical Twilight 6:11 AM HST 7:20 PM HST
Astronomical Twilight 5:45 AM HST 7:46 PM HST
Moon 12:46 PM HST (2/18) 1:30 AM HST (2/18)
Length of Visible Light 12h 16m
Length of Day
11h 31m
First Quarter, 60% of the Moon is Illuminated
Feb 18
First Quarter
Feb 25
Full
Mar 4
Last Quarter
Mar 11
New
Mar 19
First Quarter

Hourly Weather History & Observations

Time (HST) Temp. Dew Point Humidity Pressure Visibility Wind Dir Wind Speed Gust Speed Precip Events Conditions
12:12 AM 64.4 °F 57.2 °F 77% 30.14 in 10.0 mi ENE 12.7 mph - N/A   Light Drizzle
12:36 AM 64.4 °F 59.0 °F 83% 30.12 in 7.0 mi NE 17.3 mph - N/A   Scattered Clouds
12:37 AM 64.4 °F 59.0 °F 83% 30.12 in 7.0 mi NE 17.3 mph - N/A Rain Light Rain
1:18 AM 64.4 °F 59.0 °F 83% 30.12 in 6.0 mi ENE 12.7 mph - N/A   Haze
1:24 AM 64.4 °F 59.0 °F 83% 30.12 in 8.0 mi ENE 16.1 mph - N/A Rain Light Rain
1:55 AM 64.2 °F 59.7 °F 85% 30.11 in 6.0 mi NE 12.7 mph - 0.03 in Rain Light Rain
2:33 AM 64.4 °F 60.8 °F 88% 30.09 in 3.0 mi NE 25.3 mph 28.8 mph N/A   Overcast
2:43 AM 64.4 °F 60.8 °F 88% 30.10 in 3.0 mi NE 17.3 mph 25.3 mph N/A   Light Drizzle
2:54 AM 62.6 °F 59.0 °F 88% 30.10 in 10.0 mi ENE 13.8 mph - N/A   Mostly Cloudy
2:55 AM 63.3 °F 59.2 °F 86% 30.10 in 10.0 mi ENE 12.7 mph - 0.05 in   Mostly Cloudy
3:04 AM 64.4 °F 59.0 °F 83% 30.10 in 10.0 mi East 12.7 mph 24.2 mph N/A Rain Light Rain
3:41 AM 64.4 °F 57.2 °F 77% 30.09 in 10.0 mi NE 17.3 mph 23.0 mph N/A   Partly Cloudy
3:55 AM 64.9 °F 57.4 °F 76% 30.09 in 10.0 mi Variable 6.9 mph - 0.00 in   Clear
4:10 AM 64.4 °F 57.2 °F 77% 30.09 in 10.0 mi East 11.5 mph 19.6 mph N/A Rain Light Rain
4:22 AM 64.4 °F 57.2 °F 77% 30.09 in 10.0 mi ENE 17.3 mph - N/A Rain Light Rain
4:24 AM 64.4 °F 57.2 °F 77% 30.09 in 10.0 mi NE 13.8 mph - N/A   Scattered Clouds
4:55 AM 65.3 °F 57.6 °F 76% 30.09 in 10.0 mi ENE 13.8 mph - 0.00 in   Clear
5:04 AM 64.4 °F 57.2 °F 77% 30.09 in 10.0 mi NE 18.4 mph - N/A   Light Drizzle
5:09 AM 64.4 °F 57.2 °F 77% 30.08 in 10.0 mi ENE 20.7 mph 26.5 mph N/A   Clear
5:55 AM 65.1 °F 56.8 °F 75% 30.09 in 10.0 mi ENE 16.1 mph 26.5 mph 0.00 in   Clear
6:55 AM 65.1 °F 55.0 °F 70% 30.10 in 10.0 mi NE 25.3 mph 36.8 mph N/A   Clear
7:55 AM 65.5 °F 55.0 °F 69% 30.13 in 10.0 mi East 11.5 mph 20.7 mph N/A   Clear
8:45 AM 68.0 °F 59.0 °F 73% 30.12 in 10.0 mi NE 12.7 mph 19.6 mph N/A   Light Drizzle
8:55 AM 68.4 °F 58.6 °F 71% 30.12 in 10.0 mi ENE 17.3 mph 26.5 mph 0.00 in   Partly Cloudy
9:24 AM 69.8 °F 59.0 °F 68% 30.14 in 10.0 mi ENE 16.1 mph 23.0 mph N/A   Light Drizzle
9:45 AM 69.8 °F 57.2 °F 64% 30.13 in 10.0 mi ENE 20.7 mph 33.4 mph N/A   Scattered Clouds
9:52 AM 69.8 °F 59.0 °F 68% 30.13 in 10.0 mi ENE 17.3 mph - N/A   Light Drizzle
9:55 AM 70.2 °F 58.6 °F 67% 30.14 in 10.0 mi ENE 17.3 mph 26.5 mph 0.00 in   Light Drizzle
10:39 AM 69.8 °F 59.0 °F 68% 30.13 in 9.0 mi ENE 24.2 mph 33.4 mph N/A   Partly Cloudy
10:55 AM 70.9 °F 57.7 °F 63% 30.14 in 10.0 mi ENE 21.9 mph 28.8 mph 0.00 in   Clear
10:59 AM 71.6 °F 57.2 °F 60% 30.14 in 10.0 mi ENE 18.4 mph 28.8 mph N/A   Light Drizzle
11:16 AM 69.8 °F 59.0 °F 68% 30.13 in 10.0 mi ENE 18.4 mph 26.5 mph N/A   Partly Cloudy
11:19 AM 69.8 °F 59.0 °F 68% 30.13 in 10.0 mi ENE 18.4 mph 26.5 mph N/A   Light Drizzle
11:22 AM 69.8 °F 59.0 °F 68% 30.13 in 10.0 mi ENE 15.0 mph 26.5 mph N/A   Partly Cloudy
11:45 AM 71.6 °F 59.0 °F 64% 30.12 in 10.0 mi ENE 15.0 mph 21.9 mph N/A   Light Drizzle
11:55 AM 69.6 °F 59.4 °F 70% 30.12 in 10.0 mi East 10.4 mph 24.2 mph 0.00 in   Scattered Clouds
12:55 PM 70.5 °F 59.0 °F 67% 30.09 in 10.0 mi Calm Calm - N/A   Overcast
1:55 PM 71.6 °F 59.0 °F 64% 30.07 in 10.0 mi Calm Calm - N/A   Overcast
2:55 PM 71.1 °F 58.3 °F 64% 30.05 in 10.0 mi Variable 5.8 mph - N/A   Overcast
3:55 PM 70.3 °F 57.0 °F 63% 30.05 in 10.0 mi South 6.9 mph 20.7 mph N/A   Overcast
4:55 PM 70.5 °F 55.2 °F 58% 30.05 in 10.0 mi ENE 13.8 mph 20.7 mph N/A   Partly Cloudy
5:55 PM 69.8 °F 55.4 °F 60% 30.06 in 10.0 mi Calm Calm - N/A   Mostly Cloudy
6:55 PM 68.5 °F 53.8 °F 59% 30.08 in 10.0 mi ENE 9.2 mph 21.9 mph N/A   Scattered Clouds
7:55 PM 68.4 °F 55.0 °F 62% 30.11 in 10.0 mi Calm Calm - N/A   Mostly Cloudy
8:55 PM 68.0 °F 56.5 °F 67% 30.12 in 10.0 mi ENE 10.4 mph - N/A   Mostly Cloudy
9:55 PM 67.6 °F 56.5 °F 67% 30.12 in 10.0 mi Variable 3.5 mph - N/A   Mostly Cloudy
10:55 PM 67.6 °F 57.4 °F 70% 30.12 in 10.0 mi North 4.6 mph 18.4 mph N/A   Overcast
11:55 PM 66.7 °F 57.6 °F 72% 30.13 in 10.0 mi Variable 5.8 mph - N/A   Overcast